Location: Amarillo Post Office Jordan Station
(35.1907°N, 101.9342°W)
Time: 02:33:33
(UTC+00:00)

COSMO-SKYMED 1 - Visible Passes

Search period start: 19 May 2021 00:00
Search period end: 29 May 2021 00:00
Orbit: 621 x 623 km, 97.9° (Epoch: 18 May)

Date Brightness Start Highest point End Pass type
(mag) Time Alt. Az. Time Alt. Az. Time Alt. Az.
22 May 6.1 10:54:24 10° E 10:56:14 12° ENE 10:58:03 10° NE visible
27 May 6.4 10:49:21 10° ENE 10:50:17 11° ENE 10:51:12 10° NE visible
28 May 5.8 11:05:19 10° ESE 11:08:06 17° ENE 11:10:53 10° NNE visible
